Location: Noordwijk
(52.2400°N, 4.4500°E)
Time: 03:08:54
(UTC+00:00)

PCSat - Pass Details

Date: 11 December 2022
Orbit: 785 x 793 km, 67.0° (Epoch: 28 January)

Event Time Altitude Azimuth Distance (km) Brightness Sun altitude
Rises 17:40:54 0° 213° (SSW) 3,271 13.5 -18.8°
Reaches altitude 10° 17:43:18 10° 213° (SSW) 2,347 12.6 -19.2°
Maximum altitude 17:48:42 83° 126° (SE) 803 9.5 -20.0°
Enters shadow 17:51:07 34° 42° (NE) 1,282 10.2 -20.3°
